GW0067 Weather Reports


time (UTC)temp
F
wind
direction
speed
knots
gust
knots
rain 1hr
in
rain 24hr
in
rain mn
in
humidity
%
barometer
mb
20260505140510 61 186 0.0 0.0 0.00 0.00 0.00 62 1012.6
20260505125011 60 117 0.0 0.0 0.00 0.00 0.00 61 1012.9
20260505124513 61 50 0.0 0.0 0.00 0.00 0.00 60 1012.9
20260505123003 61 144 0.0 5.2 0.00 0.00 0.00 60 1012.9
20260505122503 61 243 0.9 5.2 0.00 0.00 0.00 61 1012.9
20260505121521 61 71 0.0 0.9 0.00 0.00 0.00 61 1013.0
20260505120503 59 236 0.0 4.3 0.00 0.00 0.00 64 1013.0
20260505114511 61 31 0.0 5.2 0.00 0.00 0.00 63 1013.1
20260505112011 58 42 0.0 2.6 0.00 0.00 0.00 70 1013.2
20260505111509 57 79 0.0 0.0 0.00 0.00 0.00 72 1013.2
20260505111003 57 297 0.0 0.0 0.00 0.00 0.00 73 1013.2
20260505110503 56 252 0.0 0.0 0.00 0.00 0.00 74 1013.3
20260505102010 55 230 0.0 0.0 0.00 0.00 0.00 73 1013.6
20260505101517 55 110 0.0 2.6 0.00 0.00 0.00 73 1013.5
20260505101011 56 245 0.0 2.6 0.00 0.00 0.00 73 1013.5
20260505100509 56 259 0.0 1.7 0.00 0.00 0.00 73 1013.5
20260505100028 56 226 0.0 3.5 0.00 0.00 0.00 74 1013.5
20260505095504 56 64 0.0 3.5 0.00 0.00 0.00 74 1013.5
20260505095003 56 94 0.0 2.6 0.00 0.00 0.00 75 1013.5
20260505094004 55 242 0.0 1.7 0.00 0.00 0.00 76 1013.6
20260505093504 55 241 0.0 4.3 0.00 0.00 0.00 77 1013.6
20260505093008 54 123 0.0 6.1 0.00 0.00 0.00 77 1013.6
20260505092504 54 68 0.9 6.1 0.00 0.00 0.00 78 1013.6
20260505092009 54 50 0.0 3.5 0.00 0.00 0.00 77 1013.6
20260505091512 54 246 0.0 5.2 0.00 0.00 0.00 77 1013.6
20260505091008 55 221 0.0 5.2 0.00 0.00 0.00 77 1013.6
20260505090509 55 246 0.0 1.7 0.00 0.00 0.00 78 1013.7
20260505090016 55 159 0.0 1.7 0.00 0.00 0.00 79 1013.6
20260505085507 55 259 0.0 0.0 0.00 0.00 0.00 80 1013.7
20260505085009 54 235 0.0 5.2 0.00 0.00 0.00 81 1013.8
20260505084529 54 245 0.0 5.2 0.00 0.00 0.00 81 1013.8
20260505084009 54 240 0.0 2.6 0.00 0.00 0.00 82 1013.8
20260505083504 54 195 0.0 1.7 0.00 0.00 0.00 82 1013.8
20260505083015 53 22 0.0 1.7 0.00 0.00 0.00 83 1013.9
20260505082507 53 247 0.0 0.9 0.00 0.00 0.00 83 1013.8
20260505082004 53 112 0.0 2.6 0.00 0.00 0.00 83 1013.8
20260505081509 53 240 0.0 2.6 0.00 0.00 0.00 83 1013.8
20260505081009 53 253 0.0 1.7 0.00 0.00 0.00 84 1013.9
20260505080504 53 262 0.0 1.7 0.00 0.00 0.00 84 1013.8
20260505080021 53 120 0.0 1.7 0.00 0.00 0.00 84 1013.9
20260505075508 53 26 0.0 1.7 0.00 0.00 0.00 84 1013.8
20260505075007 53 141 0.0 1.7 0.00 0.02 0.00 84 1013.7
20260505074520 53 234 0.0 0.9 0.00 0.02 0.00 84 1013.7
20260505074007 53 234 0.0 0.9 0.00 0.02 0.00 84 1013.8
20260505073508 53 221 0.0 0.9 0.00 0.02 0.00 84 1013.8
20260505073035 53 227 0.0 0.9 0.00 0.02 0.00 85 1013.8
20260505072508 53 248 0.0 0.0 0.00 0.02 0.00 85 1013.9
20260505072011 53 219 0.0 0.0 0.00 0.02 0.00 85 1013.8
20260505071505 53 219 0.0 0.0 0.00 0.02 0.00 85 1013.8
20260505071005 52 336 0.0 0.0 0.00 0.02 0.00 85 1013.9
20260505070505 52 77 0.0 3.5 0.00 0.02 0.00 85 1014.1
20260505070012 52 245 0.0 3.5 0.00 0.02 0.00 85 1014.1
20260505065506 53 232 0.0 0.0 0.00 0.02 0.00 85 1014.1
20260505065006 52 240 0.0 0.0 0.00 0.02 0.00 85 1014.1
20260505064516 52 157 0.0 0.0 0.00 0.02 0.00 86 1014.1
20260505064007 52 70 0.0 0.0 0.00 0.02 0.00 86 1014.1
20260505063508 52 232 0.0 0.0 0.00 0.02 0.00 87 1014.0
20260505063029 52 226 0.0 0.0 0.00 0.02 0.00 87 1013.9
20260505062509 52 226 0.0 0.0 0.00 0.02 0.00 87 1013.9
20260505062009 51 247 0.0 0.0 0.00 0.02 0.00 87 1013.9
20260505061528 51 228 0.0 0.0 0.00 0.02 0.00 88 1013.8
20260505061010 51 117 0.0 0.0 0.00 0.02 0.00 88 1013.9
20260505060514 51 243 0.0 0.0 0.00 0.02 0.00 88 1013.9
20260505060052 51 75 0.0 0.0 0.00 0.02 0.00 88 1013.9
20260505055512 51 242 0.0 0.0 0.00 0.02 0.00 88 1013.9
20260505055014 50 242 0.0 0.0 0.00 0.02 0.00 89 1013.9
20260505054518 50 254 0.0 0.0 0.00 0.02 0.00 89 1013.9
20260505054017 50 72 0.0 0.0 0.00 0.02 0.00 89 1013.9
20260505053508 50 71 0.0 0.0 0.00 0.02 0.00 89 1014.0
20260505053016 50 248 0.0 0.0 0.00 0.02 0.00 89 1014.0
20260505052508 50 248 0.0 0.0 0.00 0.02 0.00 89 1014.0
20260505052008 50 248 0.0 0.0 0.00 0.02 0.00 89 1014.0
20260505051520 50 245 0.0 0.0 0.00 0.02 0.00 89 1014.0
20260505051010 50 250 0.0 0.0 0.00 0.02 0.00 89 1014.0
20260505050510 50 243 0.0 0.0 0.00 0.02 0.00 89 1014.1
20260505041507 50 158 0.0 0.0 0.00 0.02 0.00 89 1014.2
20260505041002 50 158 0.0 0.0 0.00 0.02 0.00 89 1014.2
20260505040502 50 158 0.0 0.0 0.00 0.02 0.00 89 1014.2
20260505040006 50 155 0.0 0.0 0.00 0.02 0.00 89 1014.2
20260505035502 50 221 0.0 0.0 0.00 0.02 0.00 89 1014.2
20260505035006 50 221 0.0 0.0 0.00 0.02 0.00 89 1014.3
20260505034512 50 221 0.0 0.0 0.00 0.02 0.00 89 1014.2
20260505034008 50 221 0.0 0.0 0.00 0.02 0.00 89 1014.3
20260505033505 50 221 0.0 0.0 0.00 0.02 0.00 89 1014.3
20260505033012 50 221 0.0 0.0 0.00 0.02 0.00 89 1014.3
20260505032510 50 221 0.0 0.0 0.00 0.02 0.00 89 1014.2
20260505032011 50 221 0.0 0.0 0.00 0.02 0.00 89 1014.2
20260505030506 49 221 0.0 0.0 0.00 0.02 0.00 89 1014.2
20260505030004 50 221 0.0 0.0 0.00 0.02 0.00 89 1014.1
20260505025505 50 221 0.0 0.0 0.00 0.02 0.00 89 1014.2
20260505025003 50 221 0.0 0.0 0.00 0.02 0.00 89 1014.3
20260505024508 50 221 0.0 0.0 0.00 0.02 0.00 89 1014.2
20260505024002 50 221 0.0 0.0 0.00 0.02 0.00 89 1014.1
20260505023505 50 221 0.0 0.0 0.00 0.02 0.00 89 1014.1
20260505023011 50 221 0.0 0.0 0.00 0.02 0.00 89 1014.2
20260505022506 49 221 0.0 0.0 0.00 0.02 0.00 89 1014.2
20260505022005 49 221 0.0 0.0 0.00 0.02 0.00 89 1014.2
20260505021513 49 221 0.0 0.0 0.00 0.02 0.00 88 1014.2
20260505021008 49 221 0.0 0.0 0.00 0.02 0.00 88 1014.4
20260505020506 49 221 0.0 0.0 0.00 0.02 0.00 87 1014.4
20260505015006 50 221 0.0 0.0 0.00 0.02 0.00 87 1014.2
20260505014002 51 221 0.0 0.0 0.00 0.02 0.00 86 1014.5
20260505013502 51 255 0.0 0.0 0.00 0.02 0.00 86 1014.3
20260505013010 51 94 0.0 0.0 0.00 0.02 0.00 86 1014.3
20260505012503 51 310 0.0 0.0 0.00 0.02 0.00 86 1014.4
20260505012006 52 237 0.0 0.0 0.00 0.02 0.00 86 1014.5
20260505011510 52 237 0.0 0.0 0.00 0.02 0.00 86 1014.6
20260505011007 52 114 0.0 0.0 0.00 0.02 0.00 86 1014.7
20260505010506 52 257 0.0 0.0 0.00 0.02 0.00 86 1014.7
20260505010018 52 257 0.0 0.0 0.00 0.02 0.00 85 1014.7
20260505005508 52 257 0.0 0.0 0.00 0.02 0.00 85 1014.8
20260505005008 52 257 0.0 0.0 0.00 0.02 0.00 85 1014.8
20260505002509 53 257 0.0 0.0 0.00 0.02 0.00 84 1014.9
20260505002005 53 257 0.0 0.0 0.00 0.02 0.00 84 1014.8
20260505001508 53 257 0.0 0.0 0.00 0.02 0.00 84 1014.8
20260505001008 53 252 0.0 0.0 0.00 0.02 0.00 84 1014.9
20260505000506 53 252 0.0 0.0 0.00 0.02 0.00 84 1014.9
20260505000014 53 252 0.0 0.0 0.00 0.02 0.00 84 1014.9
20260504235506 53 252 0.0 0.0 0.00 0.02 0.00 84 1014.9
20260504235008 53 35 0.0 0.0 0.00 0.02 0.00 84 1015.0
20260504234518 53 60 0.0 0.0 0.00 0.02 0.00 84 1015.0
20260504234007 53 63 0.0 2.6 0.00 0.02 0.00 84 1015.0
20260504231519 54 32 0.0 0.0 0.00 0.02 0.00 84 1015.2
20260504231009 54 32 0.0 0.0 0.00 0.02 0.00 84 1015.2
20260504230509 54 103 0.0 0.0 0.00 0.02 0.00 84 1015.1
20260504230012 54 75 0.0 0.0 0.00 0.02 0.00 84 1015.2
20260504225507 54 105 0.0 0.0 0.00 0.02 0.02 84 1015.2
20260504225007 54 63 0.0 0.0 0.00 0.02 0.02 84 1015.1
20260504224519 54 183 0.0 0.0 0.00 0.02 0.02 84 1015.1
20260504224007 54 78 0.0 0.0 0.00 0.02 0.02 84 1015.1
20260504222512 54 0.0 0.0 0.00 0.02 0.02 1015.1
20260504222009 54 239 0.0 0.0 0.00 0.02 0.02 1015.1
20260504221523 54 181 0.0 1.7 0.00 0.02 0.02 82 1015.2
20260504220508 55 75 0.0 0.0 0.00 0.02 0.02 82 1015.3
20260504220020 55 93 0.0 0.0 0.00 0.02 0.02 82 1015.3
20260504215510 55 94 0.0 0.0 0.00 0.02 0.02 82 1015.3
20260504215009 55 94 0.0 0.0 0.00 0.02 0.02 82 1015.3
20260504214511 55 96 0.0 0.0 0.00 0.02 0.02 81 1015.3
20260504214013 55 245 0.0 0.0 0.00 0.02 0.02 1015.4
20260504213507 0 0.0 0.0 0.00 0.02 0.02 1015.4
20260504213027 0 254 0.0 0.0 0.00 0.02 0.02 1015.4
20260504212509 0 0.0 0.0 0.00 0.02 0.02 1015.5
20260504212009 0 0.0 0.0 0.00 0.02 0.02 1015.4
20260504211534 0 0.0 0.0 0.00 0.02 0.02 1015.4
20260504211007 0 0.0 0.0 0.00 0.02 0.02 1015.4
20260504205508 0 0.0 0.0 0.00 0.02 0.02 1015.4
20260504205007 56 0.0 0.0 0.00 0.02 0.02 81 1015.4
20260504204524 56 0.0 0.0 0.00 0.02 0.02 81 1015.4
20260504204011 56 228 0.0 0.0 0.00 0.02 0.02 81 1015.4
20260504203514 56 262 0.0 0.0 0.00 0.02 0.02 81 1015.4
20260504203021 56 89 0.0 0.0 0.00 0.02 0.02 81 1015.4
20260504202011 56 72 0.0 0.0 0.00 0.02 0.02 81 1015.4
20260504201523 57 94 0.0 0.0 0.00 0.02 0.02 80 1015.3
20260504201009 57 338 0.0 0.0 0.00 0.02 0.02 80 1015.3
20260504200507 0 26 0.0 0.0 0.00 0.02 0.02 1015.3
20260504200026 57 0.0 0.0 0.00 0.02 0.02 80 1015.2
20260504195004 57 70 0.0 0.0 0.00 0.02 0.02 80 1015.1
20260504194509 57 237 0.0 0.0 0.00 0.02 0.02 80 1015.0
20260504194010 57 260 0.0 0.0 0.00 0.02 0.02 79 1015.0
20260504193505 57 260 0.0 0.0 0.00 0.02 0.02 79 1015.0
20260504193012 57 328 0.0 0.0 0.00 0.02 0.02 79 1015.0
20260504192508 57 74 0.0 0.0 0.00 0.02 0.02 79 1015.0
20260504192010 57 74 0.0 0.0 0.00 0.02 0.02 79 1015.0
20260504191516 58 43 0.0 0.0 0.00 0.02 0.02 79 1015.0
20260504191011 58 0.0 0.0 0.00 0.02 0.02 79 1015.0
20260504190510 58 86 0.0 0.0 0.00 0.02 0.02 79 1014.9
20260504184503 58 72 0.0 2.6 0.00 0.02 0.02 78 1014.9
20260504184012 58 264 0.0 2.6 0.00 0.02 0.02 78 1014.8
20260504183505 58 40 0.0 1.7 0.00 0.02 0.02 78 1014.8
20260504183010 58 61 0.0 0.0 0.00 0.02 0.02 77 1014.7
20260504182510 58 75 0.0 3.5 0.00 0.02 0.02 77 1014.7
20260504182013 58 63 0.0 4.3 0.00 0.02 0.02 77 1014.7
20260504181524 59 85 0.0 3.5 0.00 0.02 0.02 76 1014.7
20260504181010 59 88 0.0 3.5 0.00 0.02 0.02 76 1014.7
20260504180512 59 96 0.0 0.0 0.00 0.02 0.02 76 1014.7
20260504180026 59 50 0.0 0.0 0.00 0.02 0.02 76 1014.7
20260504175507 59 0.0 0.0 0.00 0.02 0.02 76 1014.6
20260504175018 59 72 0.0 2.6 0.00 0.02 0.02 76 1014.5
20260504174525 59 233 0.0 0.9 0.00 0.02 0.02 76 1014.5
20260504174011 59 80 0.0 3.5 0.00 0.02 0.02 75 1014.4
20260504172505 59 135 0.0 5.2 0.00 0.02 0.02 76 1014.3
20260504172005 59 30 0.0 5.2 0.00 0.02 0.02 75 1014.3
20260504171508 60 345 0.0 3.5 0.00 0.02 0.02 75 1014.4
20260504171014 60 91 0.0 4.3 0.00 0.02 0.02 75 1014.4
20260504151009 62 33 0.0 0.9 0.00 0.02 0.02 71 1014.5
20260504150514 62 37 0.0 5.2 0.00 0.02 0.02 72 1014.5